User: anonymous   Login
Location: Unspecified
(0.0000°N, 0.0000°E)
Time: 00:44:51
(UTC+00:00)
Language:

CANX 3B (BRITE-ASRA) - Orbit

View from above orbital plane
View from above orbital plane
View from above satellite
View from above satellite

Ground track
Ground track

The orbit data is extracted from the following two-line orbital elements,

1 39091U 13009F   14355.11902969  .00000483  00000-0  18565-3 0  5506
2 39091 098.6097 189.2712 0011603 119.9726 240.2612 14.34796690 95133
Epoch (UTC): 21 December 2014 02:51:24
Eccentricity: 0.0011603
inclination: 98.6097°
perigee height: 767 km
apogee height: 784 km
right ascension of ascending node: 189.2712°
argument of perigee: 119.9726°
revolutions per day: 14.34796690
mean anomaly at epoch: 240.2612°
orbit number at epoch: 9513

The dashed part of the orbit path shows where the satellite is in the earth's shadow,  

DLR